Погода в Большом Мурашкино

Россия / Нижегородская область     55°46′51″N   44°46′19″E
темп.,
°C
ветер,
м/с
пор.,
м/с
влажн.,
%
обл.,
%
осадки,
мм/ч
давл.,
гПа
погр.,
м
19 апреля, пн
пн1900:00+4всв6138239 0.0 1025482
03:00+3всв6127949 0.0 1025397
06:00+2всв61271100 0.0 1026497
09:00+4в81158100 0.0 1026707
12:00+6в91146100 0.0 10271188
15:00+7в9113815 0.0 10261496
18:00+6в8124522 0.0 10261302
21:00+3в714495 0.0 1027575
20 апреля, вт
вт2000:00+2в71449100 0.0 1028532
03:00+1в7145575 0.0 1027454
06:000в7156144 0.0 1027434
09:00+5вюв81351100 0.0 1027875
12:00+9вюв9124044 0.0 10261340
15:00+10вюв9123856 0.0 10251542
18:00+8вюв81245100 0.0 10231107
21:00+6вюв81545100 0.0 1022785
21 апреля, ср
ср2100:00+5вюв91745100 0.0 1020867
03:00+5юв111952100 0.1 1017943
06:00+3юв112286100 3.5 1015856
09:00+3юв111985100 3.9 1014914
12:00+4юв111886100 0.1 1013972
15:00+5ююв101885100 0.1 1012955
18:00+5ююв91690100 0.1 1013962
21:00+6ю71392100 0.5 1016765
22 апреля, чт
чт2200:00+6ю51088100 0.2 1017498
03:00+5ю3791100 0.4 1019253
06:00+5ююв3695100 0.0 1019185
09:00+9ю5676100 0.0 1020641
12:00+10ю5668100 0.1 10201163
15:00+8ю368899 2.3 1021540
18:00+9ю4782100 0.2 1021361
21:00+6ююв389223 0.3 1022157
23 апреля, пт
пт2300:00+7ююв3888100 0.0 1023200
03:00+7ююв41088100 0.2 1023254
06:00+6ююв3984100 0.0 1023222
09:00+10ю51074100 0.0 1023390
12:00+15ю684525 0.0 10222121
15:00+15ю575168 0.0 10221480
18:00+13ююв3665100 0.0 1021153
21:00+11ююв4116994 0.0 1021293